STARLINK-4089 (52831 NORAD) Tracking and Keplerian Element Data

This shows tracking and keplerian element data for the satellite.

Feedback or suggestion? Click here.




ElementValue
Catalog52831
NameSTARLINK-4089
Epoch Orbit1283
Epoch Day248.25001157
Epoch Year2022
RAAN26.7246
Inclination53.2149
Eccentricity0.0001267
Argument of Perigee86.8635
Mean Anonmoly26.4523
Mean Motion15.08841543
Decay Rate0.00055622
L11 52831U 22062B 22248.25001157 .00055622 00000+0 34854-2 0 9995
L22 52831 53.2149 26.7246 0001267 86.8635 26.4523 15.08841543 12839

Live tracking and technical data element details for STARLINK-4089 (NORAD 52831). STARLINK-4089 can be tracked NOW for your location showing map with azimuth and elevation plus other details from your city location.

Track the satellite on the map from your city or location and see movement details for azimuth, elevation, latitude, longitude, range, height, and movement on the map or in text.







IsCatalogInMostPopularTable: catalog: 52831, numindb: 4
Update: records affected: 1



GetName: 52831 STARLINK-4089

Hit Count: updated at: Sun, 25 Sep 2022 07:34:46 GMT